Skip Page Navigation
NASA JPL Caltech
NASA Logo - Jet Propulsion Laboratory + View the NASA Portal
+ Near-Earth Object (NEO) Program
Search JPL
JPL Home Earth Solar System Stars & Galaxies Technology
JPL Solar System Dynamics
BODIES ORBITS EPHEMERIDES TOOLS PHYSICAL DATA DISCOVERY FAQ SITE MAP
JPL Small-Body Database Browser
Search: [ help ]  
17440 (1989 TP14)
Classification: Main-belt Asteroid          SPK-ID: 2017440
Ephemeris | Orbit Diagram | Orbital Elements | Physical Parameters | Discovery Circumstances | Close-Approach Data ]

[ show orbit diagram ]
Orbital Elements at Epoch 2457000.5 (2014-Dec-09.0) TDB
Reference: JPL 12 (heliocentric ecliptic J2000)
 Element Value Uncertainty (1-sigma)   Units 
e .2863475542910983 6.6279e-08  
a 3.138457711478727 3.7089e-08 AU
q 2.239768021550756 2.002e-07 AU
i 14.12107823628442 1.005e-05 deg
node 12.64788833904397 2.9581e-05 deg
peri 63.84924040647986 3.5028e-05 deg
M 149.2594503254203 1.7681e-05 deg
tp 2456158.499817093432
(2012-Aug-18.99981709)
9.2746e-05 JED
period 2030.826625620637
5.56
3.5999e-05
9.856e-08
d
yr
n .1772677172232667 3.1423e-09 deg/d
Q 4.037147401406698 4.771e-08 AU
  Orbit Determination Parameters
   # obs. used (total)      572  
   data-arc span      13025 days (35.66 yr)  
   first obs. used      1978-10-03  
   last obs. used      2014-06-01  
   planetary ephem.      DE431  
   SB-pert. ephem.      SB431-BIG16  
   condition code      0  
   fit RMS      .50736  
   data source      ORB  
   producer      Otto Matic  
   solution date      2015-Jun-04 16:29:07  

Additional Information
 Earth MOID = 1.29394 AU 
 T_jup = 3.101 
[ show covariance matrix ]

Ephemeris | Orbit Diagram | Orbital Elements | Physical Parameters | Discovery Circumstances | Close-Approach Data ]

Physical Parameter Table
Parameter Symbol Value Units Sigma Reference Notes
absolute magnitude H 13.4 mag n/a MPO302172  

17440 (1989 TP14)          Discovered 1989-Oct-02 by Debehogne, H. at La Silla
Reference: 20001013/Numbers.arcLast Updated: 2004-04-19

[ show close-approach data ]
Alternate Designations
 1989 TP14 = 1978 TE2 = 1997 EY57 
Ephemeris | Orbit Diagram | Orbital Elements | Physical Parameters | Discovery Circumstances | Close-Approach Data ]
ABOUT SSD CREDITS/AWARDS PRIVACY/COPYRIGHT GLOSSARY LINKS
FirstGov 2015-Jul-02 03:36 UT
(server date/time)  
NASA Home Page
Site Manager:   Ryan S. Park
Webmaster  Alan B. Chamberlin